www.pogodaiklimat.ru
ПОГОДА в Энзели
Время
(UTC), дата
12 15.10
15 15.10
18 15.10
21 15.10
00 16.10
03 16.10
06 16.10
09 16.10
12 16.10
15 16.10
18 16.10
21 16.10
00 17.10
03 17.10
06 17.10
09 17.10
12 17.10
15 17.10
18 17.10
21 17.10
03 18.10
06 18.10
09 18.10
12 18.10
15 18.10
18 18.10
21 18.10
00 19.10
03 19.10
06 19.10
09 19.10
12 19.10
15 19.10
18 19.10
21 19.10
00 20.10
03 20.10
06 20.10
09 20.10
12 20.10
15 20.10
18 20.10
21 20.10
00 21.10
03 21.10
06 21.10
09 21.10
12 21.10
15 21.10
18 21.10
21 21.10
00 22.10
03 22.10
06 22.10
Ветер
(напр.,м/с)
Видим. Явления Облачность Т
(С)
Тd
(С)
f
(%)
Тe
(С)
Тes
(С)
Комфортность P
(гПа)
Po
(гПа)
Тmin
(С)
Tmax
(С)
R
(мм)
R24
(мм)
S
(см)
В 2 10 км 1/1 600 м
[Cu hum]
+23.4 +32.0 100 +33 +36 очень
душно
1021.9 1024.7
ЮВ 2 10 км ясно +20.7 +16.3 76 +25 +25 комфорт 1020.9 1023.7 +25.0
Ю 1 10 км ясно +18.5 +15.5 83 +20 +20 тепло 1020.4 1023.2
штиль 0 10 км ясно +16.6 +15.6 94 +16 +16 тепло 1020.1 1022.9
З 1 10 км ясно +17.4 +16.4 94 +18 +18 тепло 1019.7 1022.5
З 1 10 км 1/1 600 м
[Cu hum Ci fib]
+16.6 +15.6 94 +17 +17 тепло 1020.4 1023.2 +16.4 666
штиль 0 10 км 1/1 600 м
[Cu hum]
+23.1 +30.1 100 +32 +38 очень
душно
1021.2 1024.0
СВ 3 10 км ясно +25.0 +17.7 64 +29 +37 душно 1019.9 1022.7
СВ 2 10 км ясно +23.8 +30.1 100 +32 +36 очень
душно
1019.3 1022.1
В 1 10 км ясно +20.9 +17.3 80 +26 +26 душно 1019.7 1022.5 +25.3
Ю 1 10 км ясно +19.3 +16.9 86 +22 +22 комфорт 1020.2 1023.0
штиль 0 10 км ясно +17.2 +16.4 95 +17 +17 тепло 1020.5 1023.3
З 1 10 км 8/0
[Cs]
+19.3 +18.1 93 +22 +22 комфорт 1021.8 1024.6
ЮЗ 1 10 км 9/5 900 м
[Sc Ac As]
+18.4 +16.7 90 +20 +20 тепло 1022.7 1025.5 +17.1
З 1 10 км 8/6 750 м
[Sc Ac As]
+22.2 +30.0 100 +30 +31 очень
душно
1023.7 1026.5
С 2 10 км 5/4 750 м
[Sc Ac trans]
+24.1 +18.7 72 +29 +34 душно 1022.7 1025.5
В 2 10 км 8/6 750 м
[Sc Ac As]
+23.8 +30.0 100 +32 +33 очень
душно
1022.2 1025.0
ЮВ 2 10 км 5/3 750 м
[Sc diur, vesp Ac As Ci sp]
+21.4 +18.0 81 +26 +26 душно 1021.8 1024.6 +25.7 666
ЮВ 2 10 км ясно +19.4 +17.5 89 +22 +22 комфорт 1021.5 1024.3
Ю 1 10 км ясно +18.0 +17.2 95 +19 +19 тепло 1020.9 1023.7
Ю 1 10 км 8/6 300 м
[Frnb Ac As]
+18.9 +17.7 93 +21 +21 комфорт 1020.1 1022.9 +17.3 666
штиль 0 10 км 9/5 750 м
[Sc Ac As]
+21.2 +30.0 100 +27 +28 душно 1020.6 1023.4
С 1 10 км 9/5 750 м
[Sc Ac As]
+23.4 +17.8 71 +29 +32 душно 1018.8 1021.6 666
В 3 10 км 6/0
[Ac und Cs]
+23.7 +30.0 100 +32 +34 очень
душно
1017.4 1020.2
ЮВ 3 10 км 8/0
[Ac und Cs]
+21.2 +17.0 77 +25 +25 комфорт 1017.3 1020.1 +26.0 666
Ю 1 10 км 6/0
[Cs]
+19.6 +17.4 87 +23 +23 комфорт 1017.5 1020.3
штиль 0 10 км ясно +17.4 +17.0 94 +18 +18 тепло 1016.9 1019.7
штиль 0 6000 м дымка ясно +19.7 +18.5 93 +22 +22 комфорт 1017.3 1020.1
ЮЗ 1 7000 м дымка 9/5 900 м
[Sc Ac As]
+19.2 +17.2 88 +22 +22 комфорт 1018.2 1021.0 +17.8 666
ЮЗ 1 8000 м дымка 10/5 900 м
[Sc As op]
+20.1 +16.9 82 +24 +25 комфорт 1019.2 1022.0
В 2 10 км 5/1 600 м
[Cu hum Cc]
+25.1 +18.0 65 +29 +37 душно 1018.1 1020.9 666
В 2 10 км 9/0
[Cs]
+22.7 0.0 22 +22 +24 комфорт 1017.7 1020.5
штиль 0 10 км 8/3 900 м
[Sc Cs]
+21.3 +17.5 79 +25 +25 комфорт 1018.4 1021.2 +26.4
штиль 0 10 км 8/0
[Cs]
+20.5 +17.3 82 +24 +24 комфорт 1019.2 1022.0
З 1 10 км 9/4 750 м
[Sc Ac As]
+20.9 +18.2 85 +26 +26 душно 1019.6 1022.4
З 2 8000 м дымка 9/9 600 м
[Cb calv]
+20.4 +18.1 87 +25 +25 комфорт 1019.7 1022.5
З 1 5000 м слаб. ливневой дождь 10/8 450 м
[Cb calv As op]
+20.3 +18.8 91 +25 +25 комфорт 1020.6 1023.4 +20.0
З 1 8000 м дымка {ливн. осадки} 10/6 450 м
[Cb calv As op]
+20.1 +30.1 100 +25 +25 комфорт 1022.0 1024.8 0.2
СЗ 2 6000 м слаб. дождь 10/8 450 м
[Cb calv As op]
+19.6 +18.7 95 +23 +23 комфорт 1021.7 1024.5 666
С 4 2000 м сильн. дождь {гроза} 10/8 100 м
[Cb calv As op]
+18.8 +30.1 100 +20 +20 тепло 1021.7 1024.5 10
СВ 5 10 км {дождь} 10/8 450 м
[Frnb As op]
+20.0 +18.1 89 +23 +23 комфорт 1022.2 1025.0 +21.2
З 2 10 км {дождь} 10/6 750 м
[Sc As op]
+18.7 +17.2 91 +20 +20 тепло 1023.2 1026.0 2
З 3 10 км 10/6 750 м
[Sc As op]
+18.1 +15.0 82 +18 +18 тепло 1023.0 1025.8
Ю 1 10 км 9/6 750 м
[Sc Ac As]
+17.6 +16.1 91 +19 +19 тепло 1022.5 1025.3
ЮЗ 1 10 км 10/8 600 м
[Cb calv As op]
+17.9 +16.7 93 +19 +19 тепло 1023.5 1026.3 +17.3
ЮЗ 2 6000 м слаб. морось {дождь} 10/8 360 м
[St As op]
+17.8 +30.1 100 +18 +18 тепло 1025.0 1027.8 1
ЮЗ 2 5000 м дождь {морось} 10/8 360 м
[St As op]
+16.9 +16.6 98 +17 +18 тепло 1024.6 1027.4
ЮЗ 1 10 км {дождь, морось} 10/5 600 м
[Sc As op]
+18.5 +16.6 89 +20 +21 тепло 1023.7 1026.5 2
З 1 7000 м в посл. час дождь 10/8 450 м
[Cb calv As op]
+18.0 +16.8 93 +19 +19 тепло 1023.7 1026.5 +18.6 666
ЮЗ 1 10 км {дождь} 5/0
[Ac As]
+17.0 +16.0 94 +18 +18 тепло 1023.4 1026.2 0.2
ЮЗ 1 10 км 5/0
[Ac As]
+16.2 +15.7 97 +17 +17 тепло 1022.5 1025.3
ЮЗ 1 7000 м слаб. ливневой дождь 9/6 600 м
[Cb calv As op]
+17.0 +16.3 96 +18 +18 тепло 1022.2 1025.0 0.2
ЮЗ 1 7000 м дымка {ливн. осадки} 10/6 600 м
[Cb calv As op]
+16.4 +15.6 95 +17 +17 тепло 1022.4 1025.2 +15.9
З 1 10 км {ливн. осадки, дождь} 10/6 600 м
[Cb calv As op]
+17.1 +20.2 100 +18 +18 тепло 1022.9 1025.7 2
Местоположение метеостанции Энзели (Иран): широта 37.47 долгота 49.47 высота над уровнем моря -26 м.
В архиве по умолчанию представлена погода в Энзели за последнюю неделю. Архивные данные за месяц целиком и за предыдущие месяцы, начиная с января 2011 года, Вы можете получить, выбрав интересующий диапазон дат из раскрывающегося списка и нажав кнопку "Найти!".
*Определитесь, кто Вы:
Внимание! Время в таблицах - всемирное. Для получения местного времени необходимо прибавить поправку, которая равна 3.5 ч.
Смотрите также архив погоды в соседних городах и на ближайших метеорологических станциях:
Партнеры нашего сайта:      
Пояснения к столбцам:
  • Ветер - указаны скорость ветра в м/с - средняя за 10 мин, порывы в срок и между сроками (в фигурных скобках) и направление, откуда дует ветер: С - северный,
  • СВ - северо-восточный, В - восточный, ЮВ - юго-восточный, Ю - южный, ЮЗ - юго-западный, З - западный, СЗ - северо-западный.
  • Видимость - горизонтальная дальность видимости в метрах или километрах. При видимости от 1 до 10 км при отсутствии осадков обычно наблюдается дымка, при ухудшении видимости до 1 км и менее - туман. В сухую погоду видимость может ухудшаться дымом, пылью или мглою.
  • Явления - указаны атмосферные явления, наблюдавшиеся в срок или в последний час перед сроком; фигурными скобками обозначены явления, наблюдавшиеся между сроками (за 1-3 часа до срока); квадратными скобками обозначены град или гололедные отложения с указанием их диаметра в мм.
  • Облачность - указаны через наклонную черту общая и нижняя облачность в баллах и высота нижней границы облаков в метрах; квадратными скобками обозначены формы облаков: Ci - перистые, Cs - перисто-слоистые, Cc - перисто-кучевые, Ac - высококучевые, As - высокослоистые, Sc - слоисто-кучевые, Ns - слоисто-дождевые, Cu - кучевые, Cb - кучево-дождевые. Подробнее классификацию облаков см. в Атласе облаков (PDF).
  • T - Температура воздуха - температура, измеренная на высоте 2 м над землей.
  • Td - Температура точки росы - температура, при понижении до которой содержащийся в воздухе водяной пар достигнет насыщения.
  • f - Относительная влажность воздуха - влажноcть воздуха, измеренная на высоте 2 м над землей.
  • Te - Эффективная температура - температура, которую ощущает одетый по сезону человек в тени. Характеристика душности погоды. При расчете учитывается влияние влажности воздуха и скорости ветра на теплоощущения человека.
  • Tes - Эффективная температура на солнце - температура, которую ощущает человек, с поправкой на солнечный нагрев. Характеристика знойности погоды. Зависит от высоты солнца над горизонтом, облачности и скорости ветра. Ночью, в пасмурную погоду, а также при ветре 12 м/с и более поправка равна нулю.
  • P - Атмосферное давление - приведенное к уровню моря атмосферное давление.
  • Po - Атмосферное давление - измеренное на уровне метеостанции атмосферное давление.
  • Tmin - Минимальная температура - минимум температуры воздуха на высоте 2 м над землей.
  • Tmax - Максимальная температура - максимум температуры воздуха на высоте 2 м над землей.
  • R - Количество осадков - Количество выпавших осадков за период времени, мм. При наведении курсора мыши на число - период времени, за который выпало указанное количество осадков.
  • R24 - Количество осадков - Количество выпавших осадков за 24 часа, мм.
  • S - Снежный покров - Высота снежного покрова, см. При наведении курсора мыши на число - состояние снежного покрова и степень покрытия местности в баллах.